Home > Weather > Itumbiara > Past weeks

Flag for Brazil Weather for the Past 2 Weeks in Itumbiara, Goiás, Brazil

Now
75 °F

Passing clouds.


Feels Like: 77 °F
Forecast: 69 / 93 °F
Wind: 2 mph from South

Location: Uberlandia Airport

Current Time: Feb 11, 2016 at 7:37:12 AM

Latest Report: Feb 11, 2016 at 7:00 AM


Visibility: N/A

Pressure: 30.07 "Hg

Humidity: 69%

Dew point: 64 °F

Location of ItumbiaraLocation

Historic Weather in Itumbiara — Graph

°F

Itumbiara Temperature Yesterday

Maximum temperature yesterday: 86 °F (at 6:00 PM)
Minimum temperature yesterday: 66 °F (at 6:00 AM)
Average temperature yesterday: 75 °F

High & Low Weather Summary for the Past Weeks

 TemperatureHumidityPressure
High88 °F (Feb 2, 2:00 PM)94% (Jan 27, 7:00 AM)30.21 "Hg (Jan 27, 7:00 AM)
Low66 °F (Jan 31, 6:00 AM)32% (Jan 30, 3:00 PM)29.95 "Hg (Jan 27, 6:00 AM)
Average75 °F71%30.09 "Hg
* Reported Jan 27 6:00 AM — Feb 11 6:00 AM, Itumbiara, Weather by CustomWeather, © 2016

Note: Actual official high and low records may vary slightly from our data, if they occured in-between our weather recording intervals... More about our weather records

Advertising

Itumbiara Weather History for the Previous 24 Hours

 ConditionsComfort  
Time TempWeatherWind HumidityBarometerVisibility
6:00 AM
Thu, Feb 11
73 °FClear.5 mph74%30.04 "Hg10 mi
5:00 AM75 °FClear.5 mph69%30.04 "Hg10 mi
4:00 AM72 °FClear.3 mph78%30.07 "Hg10 mi
3:00 AM73 °FClear.5 mph74%30.07 "Hg10 mi
2:00 AM75 °FClear.3 mph69%30.09 "Hg10 mi
1:00 AM73 °FClear.5 mph78%30.09 "Hg10 mi
12:00 AM73 °FClear.2 mph78%30.12 "Hg10 mi
11:00 PM
Wed, Feb 10
73 °FClear.6 mph78%30.12 "Hg10 mi
10:00 PM79 °FClear.9 mph58%30.09 "Hg10 mi
9:00 PM82 °FClear.5 mph48%30.09 "Hg10 mi
7:00 PM84 °FPassing clouds.8 mph48%30.04 "HgN/A
6:00 PM86 °FScattered clouds.8 mph43%30.04 "HgN/A
3:00 PM84 °FScattered clouds.10 mph51%30.09 "HgN/A
2:00 PM84 °FScattered clouds.10 mph51%30.09 "HgN/A
1:00 PM84 °FScattered clouds.9 mph51%30.12 "HgN/A
12:00 PM82 °FSunny.8 mph51%30.15 "Hg10 mi
10:00 AM77 °FSunny.7 mph69%30.15 "Hg10 mi
9:00 AM75 °FSunny.8 mph74%30.15 "Hg10 mi
8:00 AM70 °FClear.6 mph83%30.15 "Hg10 mi
7:00 AM66 °FClear.6 mph94%30.12 "Hg10 mi
Weather by CustomWeather, © 2016

See weather overviewHow to use our weather pages